Content
SEND FEEDBACK

Daily
Averages
Monthly
Summary
United States of America

SAN RAFAEL, CALIFORNIA


Home > North America > United States > California
Elevation: 30 feet     Latitude: 37 58N     Longitude: 122 32W

WEATHER
 
SELECT A DAY
Number of Records: 172,123;   Date Range: 9/27/07 - 10/24/14
 
SHARE

PRINT THIS DATA

[ ← Previous Day ]
WEATHER ALMANAC - JANUARY 24, 2013
[ Next Day → ]
[ °C ]   °F
Weather ElementAverageHighLow
Temperature51.3 °F57.2 °F (2:15 pm)46.4 °F (7:15 am)
Dewpoint51 °F55.4 °F (3:35 pm)46.4 °F (7:15 am)
Humidity98.9 %100 % (12:35 am)88 % (2:15 pm)
Barometer30.15 in30.21 in (11:15 pm)30.09 in (12:35 am)
Wind Speed3.3 mph6.9 mph (3:55 pm)
Weather ElementAverage
Visibility5.9 mi
Wind DirectionESE (117.7 °)

Weather ElementTotal
Precipitation---
Heating Degree Days13.2 (Base 65)
Growing Degree Days1.8 (Base 50)
Averaged from 71 records on January 24, 2013
WEATHER CONDITIONS BREAKOUT
WIND DIRECTION BREAKOUT
WEATHER BY HOUR - JANUARY 24, 2013
[ °C ]   °F
Local TimeTemperatureDewpointHumidityBarometerVisibilityWind DirectionWind SpeedGust SpeedPrecipitationEventsConditions
12:35 AM48.2 °F48.2 °F100 %30.09 in4.0 miSSW (210°)3.5 mphOvercast
12:55 AM48.2 °F48.2 °F100 %30.09 in3.0 miSouth (190°)5.8 mphOvercast
1:15 AM48.2 °F48.2 °F100 %30.09 in4.0 miSouth (190°)5.8 mphOvercast
1:35 AM48.2 °F48.2 °F100 %30.09 in2.5 miCalmOvercast
1:55 AM48.2 °F48.2 °F100 %30.09 in2.5 miCalmOvercast
2:15 AM48.2 °F48.2 °F100 %30.10 in1.8 miSE (130°)3.5 mphOvercast
2:35 AM48.2 °F48.2 °F100 %30.10 in2.0 miESE (110°)3.5 mphOvercast
2:55 AM48.2 °F48.2 °F100 %30.10 in1.8 miCalmOvercast
3:15 AM48.2 °F48.2 °F100 %30.09 in2.0 miSSW (210°)5.8 mphOvercast
3:35 AM48.2 °F48.2 °F100 %30.10 in1.8 miCalmOvercast
3:55 AM48.2 °F48.2 °F100 %30.10 in3.0 miSW (220°)4.6 mphOvercast
4:15 AM48.2 °F48.2 °F100 %30.10 in4.0 miCalmMostly Cloudy
4:35 AM48.2 °F48.2 °F100 %30.10 in2.5 miEast (90°)3.5 mphOvercast
4:55 AM48.2 °F48.2 °F100 %30.10 in1.8 miCalmOvercast
5:15 AM48.2 °F48.2 °F100 %30.10 in2.0 miNNE (20°)3.5 mphOvercast
5:35 AM48.2 °F48.2 °F100 %30.10 in2.0 miNNW (340°)4.6 mphOvercast
5:55 AM48.2 °F48.2 °F100 %30.10 in2.0 miNorth (10°)3.5 mphOvercast
6:15 AM48.2 °F48.2 °F100 %30.11 in2.0 miNorth (10°)3.5 mphOvercast
6:35 AM48.2 °F48.2 °F100 %30.12 in2.5 miNorth (10°)3.5 mphOvercast
6:55 AM48.2 °F48.2 °F100 %30.12 in1.8 miCalmOvercast
7:15 AM46.4 °F46.4 °F100 %30.13 in1.2 miCalmOvercast
7:35 AM46.4 °F46.4 °F100 %30.12 in1.0 miNorth (350°)3.5 mphOvercast
7:55 AM46.4 °F46.4 °F100 %30.12 in0.8 miCalmOvercast
8:15 AM48.2 °F48.2 °F100 %30.13 in0.8 miCalmOvercast
8:35 AM48.2 °F48.2 °F100 %30.13 in1.0 miCalmOvercast
8:55 AM48.2 °F48.2 °F100 %30.15 in1.2 miSouth (190°)4.6 mphOvercast
9:15 AM50.0 °F50.0 °F100 %30.16 in1.5 miCalmOvercast
9:35 AM50.0 °F50.0 °F100 %30.17 in2.5 miSSW (210°)3.5 mphOvercast
9:55 AM50.0 °F50.0 °F100 %30.18 in5.0 miSSW (200°)3.5 mphOvercast
10:15 AM50.0 °F50.0 °F100 %30.18 in5.0 miCalmOvercast
10:35 AM50.0 °F50.0 °F100 %30.18 in5.0 miCalmOvercast
10:55 AM51.8 °F51.8 °F100 %30.18 in8.0 miSE (130°)3.5 mphOvercast
11:15 AM53.6 °F53.6 °F100 %30.18 in9.0 miSE (130°)3.5 mphOvercast
11:35 AM53.6 °F53.6 °F100 %30.17 in10.0 miESE (120°)4.6 mphOvercast
11:55 AM53.6 °F53.6 °F100 %30.17 in10.0 miSE (130°)5.8 mphOvercast
12:15 PM53.6 °F53.6 °F100 %30.16 in10.0 miSE (130°)5.8 mphOvercast
12:35 PM53.6 °F53.6 °F100 %30.15 in10.0 miSE (130°)5.8 mphMostly Cloudy
12:55 PM53.6 °F53.6 °F100 %30.15 in10.0 miSE (130°)5.8 mphMostly Cloudy
1:15 PM53.6 °F53.6 °F100 %30.14 in10.0 miESE (120°)4.6 mphMostly Cloudy
1:35 PM55.4 °F53.6 °F94 %30.13 in10.0 miSE (130°)4.6 mphScattered Clouds
1:55 PM55.4 °F53.6 °F94 %30.13 in10.0 miSSE (150°)3.5 mphClear
2:15 PM57.2 °F53.6 °F88 %30.13 in10.0 miSSW (200°)3.5 mphScattered Clouds
2:35 PM57.2 °F53.6 °F88 %30.13 in10.0 miSouth (190°)5.8 mphScattered Clouds
2:55 PM57.2 °F53.6 °F88 %30.13 in10.0 miSSE (160°)4.6 mphMostly Cloudy
3:15 PM57.2 °F53.6 °F88 %30.14 in10.0 miCalmMostly Cloudy
3:35 PM57.2 °F55.4 °F94 %30.14 in10.0 miSSE (150°)3.5 mphScattered Clouds
3:55 PM57.2 °F55.4 °F94 %30.14 in10.0 miSouth (170°)6.9 mphMostly Cloudy
4:15 PM57.2 °F55.4 °F94 %30.15 in10.0 miSouth (170°)6.9 mphOvercast
4:35 PM55.4 °F55.4 °F100 %30.16 in10.0 miSouth (180°)4.6 mphOvercast
4:55 PM55.4 °F55.4 °F100 %30.16 in10.0 miSouth (190°)4.6 mphOvercast
5:15 PM55.4 °F55.4 °F100 %30.16 in10.0 miSouth (190°)4.6 mphOvercast
5:35 PM55.4 °F55.4 °F100 %30.16 in10.0 miSouth (190°)4.6 mphOvercast
5:55 PM53.6 °F53.6 °F100 %30.16 in10.0 miSSW (200°)4.6 mphMostly Cloudy
6:15 PM53.6 °F53.6 °F100 %30.17 in10.0 miSouth (190°)5.8 mphMostly Cloudy
6:35 PM53.6 °F53.6 °F100 %30.18 in10.0 miSW (220°)4.6 mphOvercast
6:55 PM53.6 °F53.6 °F100 %30.18 in10.0 miSSW (210°)5.8 mphMostly Cloudy
7:15 PM53.6 °F53.6 °F100 %30.18 in10.0 miSW (220°)5.8 mphMostly Cloudy
7:35 PM53.6 °F53.6 °F100 %30.18 in10.0 miSW (220°)4.6 mphMostly Cloudy
7:55 PM53.6 °F53.6 °F100 %30.19 in9.0 miSW (220°)5.8 mphOvercast
8:15 PM51.8 °F51.8 °F100 %30.19 in8.0 miSW (220°)6.9 mphOvercast
8:35 PM53.6 °F53.6 °F100 %30.19 in9.0 miSSW (200°)6.9 mph
8:55 PM53.6 °F53.6 °F100 %30.19 in9.0 miSouth (190°)6.9 mph
9:15 PM51.8 °F51.8 °F100 %30.19 in7.0 miSouth (170°)3.5 mphOvercast
9:35 PM51.8 °F51.8 °F100 %30.20 in7.0 miSouth (180°)3.5 mphMostly Cloudy
9:55 PM50.0 °F50.0 °F100 %30.20 in5.0 miSE (140°)3.5 mphMostly Cloudy
10:15 PM50.0 °F50.0 °F100 %30.20 in5.0 miCalmOvercast
10:35 PM50.0 °F50.0 °F100 %30.20 in4.0 miCalmOvercast
10:55 PM50.0 °F50.0 °F100 %30.20 in4.0 miCalmOvercast
11:15 PM50.0 °F50.0 °F100 %30.21 in5.0 miCalmOvercast
11:35 PM50.0 °F50.0 °F100 %30.20 in4.0 miCalmOvercast
11:55 PM48.2 °F48.2 °F100 %30.21 in3.0 miCalmOvercast
Hourly data recorded from KDVO, located miles away from San Rafael, California







STORIES FROM OUR PARTNERS